Location: Bushey
(51.6333°N, 0.3667°W)
Time: 21:36:53
(UTC+00:00)

Cosmos 2369 Rocket - Pass Details

Date: 03 March 2021
Orbit: 829 x 852 km, 71.0° (Epoch: 15 April)

Event Time Altitude Azimuth Distance (km) Brightness Sun altitude
Rises 21:27:10 0° 331° (NNW) 3,384 6.2 -33.4°
Reaches altitude 10° 21:29:49 10° 340° (NNW) 2,448 5.2 -33.7°
Enters shadow 21:32:56 28° 6° (N) 1,538 3.7 -34.1°
